Location: Del Amo
(33.8464°N, 118.2104°W)
Time: 14:11:05
(UTC+00:00)

Vanguard 3 - All Passes

Search period start: 13 September 2024 00:00
Search period end: 23 September 2024 00:00
Orbit: 507 x 3225 km, 33.4° (Epoch: 12 September)

Date Brightness Start Highest point End Pass type
(mag) Time Alt. Az. Time Alt. Az. Time Alt. Az.
13 Sep - 12:29:27 10° SSW 12:44:49 36° SE 13:01:03 10° E visible
13 Sep - 14:40:45 10° SW 15:00:05 68° SSE 15:16:42 10° ENE daylight
13 Sep - 16:56:39 10° W 17:16:28 88° S 17:29:49 10° E daylight
13 Sep - 19:14:40 10° W 19:31:41 78° SSW 19:41:26 10° ESE daylight
13 Sep - 21:32:46 10° W 21:43:54 36° SW 21:50:40 10° SSE daylight
14 Sep - 11:12:41 10° S 11:23:59 22° SE 11:36:39 10° E visible
14 Sep - 13:20:28 10° SW 13:37:58 53° SSE 13:55:36 10° ENE daylight
14 Sep - 15:34:10 10° WSW 15:54:09 81° SSE 16:09:55 10° E daylight
14 Sep - 17:51:18 10° W 18:10:28 87° S 18:22:31 10° E daylight
14 Sep - 20:09:24 10° WNW 20:24:35 59° SSW 20:33:16 10° SE daylight
14 Sep - 22:28:49 10° W 22:35:16 17° SW 22:40:03 10° SSW daylight
15 Sep - 12:01:42 10° SSW 12:16:28 37° SE 12:33:12 10° E visible
15 Sep - 14:12:47 10° SW 14:31:38 70° SSE 14:49:19 10° ENE daylight
15 Sep - 16:28:16 10° W 16:48:23 88° S 17:02:56 10° E daylight
15 Sep - 18:46:00 10° W 19:04:06 77° SSW 19:14:55 10° ESE daylight
15 Sep - 21:04:18 10° W 21:16:40 37° SW 21:24:15 10° SSE daylight
16 Sep - 10:45:00 10° S 10:55:49 22° SE 11:08:34 10° E visible
16 Sep - 12:52:43 10° SW 13:09:27 55° SSE 13:27:48 10° ENE visible
16 Sep - 15:06:01 10° WSW 15:25:44 83° SSE 15:42:39 10° E daylight
16 Sep - 17:22:44 10° W 17:42:31 87° S 17:55:45 10° E daylight
16 Sep - 19:40:41 10° WNW 19:57:03 59° SSW 20:06:44 10° SE daylight
16 Sep - 22:00:28 10° W 22:08:02 19° SW 22:13:35 10° S daylight
17 Sep - 11:34:06 10° SSW 11:48:04 38° SE 12:05:02 10° E visible
17 Sep - 13:44:54 10° WSW 14:03:02 72° SSE 14:21:38 10° ENE daylight
17 Sep - 15:59:56 10° W 16:20:03 89° S 16:35:48 10° E daylight
17 Sep - 18:17:17 10° W 18:36:14 77° SSW 18:48:10 10° ESE daylight
17 Sep - 20:35:38 10° W 20:49:11 38° SW 20:57:40 10° SSE daylight
18 Sep - 10:17:27 10° S 10:27:38 22° SE 10:40:10 10° E visible
18 Sep - 12:25:04 10° SW 12:40:52 56° SSE 12:59:41 10° ENE visible
18 Sep - 14:38:00 10° WSW 14:57:08 84° SSE 15:15:08 10° E daylight
18 Sep - 16:54:11 10° W 17:14:17 86° S 17:28:43 10° ESE daylight
18 Sep - 19:11:52 10° WNW 19:29:15 59° SSW 19:40:00 10° SE daylight
18 Sep - 21:31:54 10° W 21:40:33 20° SW 21:46:55 10° S daylight
19 Sep - 11:06:36 10° SSW 11:19:38 39° SE 11:36:35 10° E visible
19 Sep - 13:17:09 10° WSW 13:34:22 73° SSE 13:53:38 10° ENE visible
19 Sep - 15:31:41 10° W 15:51:30 89° S 16:08:25 10° E daylight
19 Sep - 17:48:32 10° W 18:08:05 76° SSW 18:21:13 10° ESE daylight
19 Sep - 20:06:49 10° W 20:21:25 38° SW 20:30:52 10° SSE daylight
20 Sep - 09:50:02 10° S 09:59:27 22° SE 10:11:32 10° E visible
20 Sep - 11:57:31 10° SW 12:12:16 57° SSE 12:31:18 10° ENE visible
20 Sep - 14:10:04 10° WSW 14:28:25 85° SSE 14:47:17 10° E daylight
20 Sep - 16:25:41 10° W 16:45:47 86° S 17:01:26 10° ESE daylight
20 Sep - 18:42:59 10° WNW 19:01:09 58° SSW 19:13:01 10° SE daylight
20 Sep - 21:03:09 10° W 21:12:51 20° SW 21:20:02 10° S daylight
21 Sep - 10:39:12 10° SSW 10:51:14 39° SE 11:07:52 10° E visible
21 Sep - 12:49:30 10° WSW 13:05:38 74° SSE 13:25:22 10° E visible
21 Sep - 15:03:32 10° W 15:22:47 89° S 15:40:45 10° E daylight
21 Sep - 17:19:49 10° W 17:39:39 75° SSW 17:54:00 10° ESE daylight
21 Sep - 19:37:53 10° W 19:53:24 38° SW 20:03:50 10° SSE daylight
22 Sep - 09:22:42 10° S 09:31:18 22° SE 09:42:42 10° E visible
22 Sep - 11:30:04 10° SW 11:43:41 58° SSE 12:02:37 10° ENE visible
22 Sep - 13:42:14 10° WSW 13:59:36 85° S 14:19:10 10° E daylight
22 Sep - 15:57:16 10° W 16:17:05 85° SSW 16:33:54 10° ESE daylight
22 Sep - 18:14:06 10° WNW 18:32:47 57° SSW 18:45:48 10° SE daylight
22 Sep - 20:34:15 10° W 20:44:54 21° SW 20:52:55 10° S daylight
